Location: Alvediston
(51.0078°N, 2.0364°W)
Time: 18:34:57
(UTC+00:00)

Orbus 7S? - Pass Details

Date: 27 February 2020
Orbit: 325 x 6444 km, 57.0° (Epoch: 01 March)

Event Time Altitude Azimuth Distance (km) Brightness Sun altitude
Rises 18:07:16 0° 237° (WSW) 6,129 10.0 -4.3°
Reaches altitude 10° 18:12:28 10° 239° (WSW) 4,153 9.0 -5.2°
Maximum altitude 18:21:27 86° 329° (NNW) 840 4.3 -6.6°
Drops below altitude 10° 18:25:13 10° 59° (ENE) 1,812 5.4 -7.1°
Enters shadow 18:25:40 - 59° (ENE) 2,006 5.6 -7.2°
